Hourly Weather Newcastle

Today, 5 August, Thursday

Time Temperature Precipitation Wind Pressure Humidity
00:00 +9°C° 0 mm 6 mps 761 mmHg 63%
01:00 +8°C° 0 mm 6 mps 761 mmHg 65%
02:00 +8°C° 0 mm 6 mps 761 mmHg 66%
03:00 +8°C° 0 mm 6 mps 761 mmHg 67%
04:00 +8°C° 0 mm 6 mps 761 mmHg 68%
05:00 +8°C° 0 mm 6 mps 761 mmHg 70%
06:00 +8°C° 0 mm 6 mps 761 mmHg 72%
07:00 +8°C° 0 mm 6 mps 762 mmHg 74%
08:00 +10°C° 0 mm 6 mps 762 mmHg 67%
09:00 +13°C° 0 mm 6 mps 762 mmHg 59%
10:00 +15°C° 0 mm 6 mps 762 mmHg 52%
11:00 +17°C° 0 mm 5 mps 762 mmHg 47%
12:00 +19°C° 0 mm 5 mps 761 mmHg 41%
13:00 +20°C° 0 mm 5 mps 761 mmHg 35%
14:00 +20°C° 0 mm 4 mps 761 mmHg 38%
15:00 +20°C° 0 mm 4 mps 761 mmHg 41%
16:00 +19°C° 0 mm 4 mps 761 mmHg 43%
17:00 +17°C° 0 mm 5 mps 762 mmHg 47%
18:00 +15°C° 0 mm 5 mps 762 mmHg 51%
19:00 +14°C° 0 mm 6 mps 763 mmHg 54%
20:00 +12°C° 0 mm 5 mps 763 mmHg 59%
21:00 +11°C° 0 mm 4 mps 764 mmHg 64%
22:00 +10°C° 0 mm 4 mps 764 mmHg 69%
23:00 +8°C° 0 mm 4 mps 764 mmHg 71%

Tomorrow, 6 August, Friday

Time Temperature Precipitation Wind Pressure Humidity
00:00 +8°C° 0 mm 4 mps 764 mmHg 73%
01:00 +8°C° 0 mm 3 mps 764 mmHg 75%
02:00 +8°C° 0 mm 3 mps 764 mmHg 76%
03:00 +7°C° 0 mm 4 mps 764 mmHg 77%
04:00 +6°C° 0 mm 4 mps 764 mmHg 78%
05:00 +6°C° 0 mm 4 mps 765 mmHg 78%
06:00 +6°C° 0 mm 4 mps 765 mmHg 78%
07:00 +6°C° 0 mm 4 mps 766 mmHg 78%
08:00 +10°C° 0 mm 4 mps 766 mmHg 68%
09:00 +12°C° 0 mm 4 mps 766 mmHg 59%
10:00 +16°C° 0 mm 3 mps 766 mmHg 49%
11:00 +17°C° 0 mm 3 mps 766 mmHg 46%
12:00 +18°C° 0 mm 3 mps 765 mmHg 42%
13:00 +19°C° 0 mm 2 mps 765 mmHg 38%
14:00 +19°C° 0 mm 2 mps 764 mmHg 41%
15:00 +19°C° 0 mm 2 mps 764 mmHg 44%
16:00 +18°C° 0 mm 2 mps 764 mmHg 46%
17:00 +16°C° 0 mm 2 mps 765 mmHg 55%
18:00 +14°C° 0 mm 2 mps 765 mmHg 63%
19:00 +12°C° 0 mm 2 mps 765 mmHg 71%
20:00 +10°C° 0 mm 2 mps 766 mmHg 73%
21:00 +10°C° 0 mm 3 mps 766 mmHg 74%
22:00 +9°C° 0 mm 3 mps 767 mmHg 76%
23:00 +9°C° 0 mm 3 mps 767 mmHg 77%

Day after tomorrow, 7 August, Saturday

Time Temperature Precipitation Wind Pressure Humidity
00:00 +9°C° 0 mm 3 mps 767 mmHg 79%
01:00 +7°C° 0 mm 4 mps 767 mmHg 80%
02:00 +7°C° 0 mm 4 mps 767 mmHg 81%
03:00 +6°C° 0 mm 4 mps 767 mmHg 82%
04:00 +6°C° 0 mm 4 mps 767 mmHg 83%
05:00 +6°C° 0 mm 4 mps 767 mmHg 83%
06:00 +6°C° 0 mm 4 mps 768 mmHg 83%
07:00 +5°C° 0 mm 4 mps 768 mmHg 83%
08:00 +8°C° 0 mm 4 mps 768 mmHg 73%
09:00 +11°C° 0 mm 4 mps 768 mmHg 62%
10:00 +13°C° 0 mm 3 mps 768 mmHg 52%
11:00 +16°C° 0 mm 3 mps 767 mmHg 48%
12:00 +17°C° 0 mm 3 mps 767 mmHg 43%
13:00 +18°C° 0 mm 2 mps 766 mmHg 38%
14:00 +18°C° 0 mm 2 mps 766 mmHg 41%
15:00 +18°C° 0 mm 3 mps 766 mmHg 44%
16:00 +18°C° 0 mm 3 mps 766 mmHg 47%
17:00 +15°C° 0 mm 2 mps 766 mmHg 57%
18:00 +13°C° 0 mm 2 mps 767 mmHg 68%
19:00 +11°C° 0 mm 1 mps 767 mmHg 78%
20:00 +10°C° 0 mm 1 mps 768 mmHg 81%
21:00 +9°C° 0 mm 2 mps 768 mmHg 84%
22:00 +8°C° 0 mm 2 mps 769 mmHg 86%
23:00 +8°C° 0 mm 3 mps 769 mmHg 86%

8 August, Sunday

Time Temperature Precipitation Wind Pressure Humidity
00:00 +7°C° 0 mm 3 mps 769 mmHg 86%
01:00 +7°C° 0 mm 3 mps 770 mmHg 87%
02:00 +7°C° 0 mm 3 mps 770 mmHg 87%
03:00 +5°C° 0 mm 3 mps 770 mmHg 87%
04:00 +5°C° 0 mm 3 mps 770 mmHg 87%
05:00 +5°C° 0.2 mm 3 mps 770 mmHg 85%
06:00 +7°C° 0.2 mm 3 mps 770 mmHg 82%
07:00 +8°C° 0.2 mm 3 mps 771 mmHg 80%
08:00 +9°C° 0.2 mm 3 mps 771 mmHg 79%
09:00 +9°C° 0.2 mm 3 mps 771 mmHg 78%
10:00 +10°C° 0.2 mm 3 mps 771 mmHg 77%
11:00 +12°C° 0.1 mm 3 mps 771 mmHg 72%
12:00 +14°C° 0.1 mm 3 mps 770 mmHg 67%
13:00 +17°C° 0.1 mm 3 mps 770 mmHg 62%
14:00 +17°C° 0.1 mm 3 mps 770 mmHg 63%
15:00 +17°C° 0.1 mm 3 mps 770 mmHg 64%
16:00 +17°C° 0.1 mm 3 mps 769 mmHg 65%
17:00 +14°C° 0.1 mm 3 mps 770 mmHg 74%
18:00 +13°C° 0.1 mm 3 mps 770 mmHg 82%
19:00 +11°C° 0.1 mm 3 mps 770 mmHg 91%
20:00 +11°C° 0.3 mm 3 mps 770 mmHg 92%
21:00 +10°C° 0.3 mm 3 mps 770 mmHg 93%
22:00 +10°C° 0.3 mm 3 mps 771 mmHg 94%
23:00 +10°C° 0.4 mm 3 mps 770 mmHg 94%

9 August, Monday

Time Temperature Precipitation Wind Pressure Humidity
00:00 +11°C° 0.4 mm 3 mps 770 mmHg 94%
01:00 +11°C° 0.4 mm 3 mps 770 mmHg 95%
02:00 +11°C° 0.6 mm 3 mps 770 mmHg 95%
03:00 +11°C° 0.6 mm 3 mps 770 mmHg 96%
04:00 +11°C° 0.6 mm 3 mps 770 mmHg 96%
05:00 +11°C° 0.5 mm 3 mps 770 mmHg 96%
06:00 +11°C° 0.5 mm 4 mps 770 mmHg 96%
07:00 +11°C° 0.5 mm 4 mps 770 mmHg 96%
08:00 +12°C° 0.4 mm 4 mps 770 mmHg 91%
09:00 +13°C° 0.4 mm 4 mps 770 mmHg 87%
10:00 +14°C° 0.4 mm 5 mps 770 mmHg 83%
11:00 +16°C° 0.3 mm 5 mps 770 mmHg 75%
12:00 +17°C° 0.3 mm 5 mps 769 mmHg 68%
13:00 +19°C° 0.3 mm 5 mps 768 mmHg 60%
14:00 +19°C° 0.2 mm 5 mps 768 mmHg 63%
15:00 +17°C° 0.2 mm 5 mps 768 mmHg 66%
16:00 +17°C° 0.2 mm 5 mps 767 mmHg 69%
17:00 +16°C° 0 mm 5 mps 768 mmHg 71%
18:00 +15°C° 0 mm 5 mps 768 mmHg 73%
19:00 +14°C° 0 mm 5 mps 768 mmHg 74%
20:00 +13°C° 0 mm 5 mps 768 mmHg 79%
21:00 +13°C° 0 mm 4 mps 768 mmHg 83%
22:00 +12°C° 0 mm 4 mps 768 mmHg 87%
23:00 +12°C° 0 mm 4 mps 768 mmHg 87%

10 August, Tuesday

Time Temperature Precipitation Wind Pressure Humidity
00:00 +12°C° 0 mm 3 mps 768 mmHg 87%
01:00 +12°C° 0 mm 3 mps 768 mmHg 87%
02:00 +11°C° 0 mm 3 mps 767 mmHg 88%
03:00 +12°C° 0 mm 2 mps 767 mmHg 89%
04:00 +12°C° 0 mm 2 mps 767 mmHg 90%
05:00 +12°C° 0 mm 2 mps 768 mmHg 89%
06:00 +12°C° 0 mm 2 mps 768 mmHg 88%
07:00 +10°C° 0 mm 2 mps 768 mmHg 87%
08:00 +14°C° 0 mm 2 mps 768 mmHg 75%
09:00 +17°C° 0 mm 2 mps 768 mmHg 64%
10:00 +19°C° 0 mm 2 mps 768 mmHg 53%
11:00 +21°C° 0 mm 2 mps 768 mmHg 49%
12:00 +23°C° 0 mm 2 mps 767 mmHg 44%
13:00 +24°C° 0 mm 2 mps 766 mmHg 40%
14:00 +24°C° 0 mm 3 mps 766 mmHg 43%
15:00 +22°C° 0 mm 3 mps 766 mmHg 46%
16:00 +22°C° 0 mm 4 mps 765 mmHg 49%
17:00 +20°C° 0 mm 4 mps 766 mmHg 55%
18:00 +18°C° 0 mm 3 mps 766 mmHg 61%
19:00 +17°C° 0 mm 3 mps 766 mmHg 67%
20:00 +16°C° 0 mm 3 mps 767 mmHg 70%
21:00 +14°C° 0 mm 3 mps 767 mmHg 74%
22:00 +14°C° 0 mm 2 mps 767 mmHg 77%
23:00 +14°C° 0 mm 2 mps 767 mmHg 77%
Show more